Skip Page Navigation
NASA JPL Caltech
NASA Logo - Jet Propulsion Laboratory + View the NASA Portal
+ Center for Near-Earth Object Studies
JPL Home Earth Solar System Stars & Galaxies Technology
JPL Solar System Dynamics
BODIES ORBITS EPHEMERIDES TOOLS PHYSICAL DATA DISCOVERY FAQ SITE MAP
JPL Small-Body Database Browser
Search: [ help ]  
22130 (2000 UT3)
Classification: Main-belt Asteroid          SPK-ID: 2022130
Ephemeris | Orbit Diagram | Orbital Elements | Mission Design | Physical Parameters | Discovery Circumstances | Close-Approach Data ]

[ show orbit diagram ]
Orbital Elements at Epoch 2459200.5 (2020-Dec-17.0) TDB
Reference: JPL 33 (heliocentric ecliptic J2000)
 Element Value Uncertainty (1-sigma)   Units 
e .2159027629106465 3.6147e-08  
a 2.396973406788752 7.4543e-09 au
q 1.879460225639715 8.6047e-08 au
i 7.959339504986242 4.3367e-06 deg
node 159.4337971053758 2.1764e-05 deg
peri 218.6233136306875 2.3203e-05 deg
M 206.7050740826451 8.0716e-06 deg
tp 2459777.689643109935
(2022-Jul-17.18964311)
3.1108e-05 TDB
period 1355.480426218415
3.71
6.3231e-06
1.731e-08
d
yr
n .2655884902774624 1.2389e-09 deg/d
Q 2.914486587937788 9.0637e-09 au
  Orbit Determination Parameters
   # obs. used (total)      2526  
   data-arc span      23858 days (65.32 yr)  
   first obs. used      1955-10-23  
   last obs. used      2021-02-16  
   planetary ephem.      DE441  
   SB-pert. ephem.      SB441-N16  
   condition code      0  
   norm. resid. RMS      .40453  
   source      ORB  
   producer      Otto Matic  
   solution date      2021-Apr-13 04:01:25  

Additional Information
 Earth MOID = .886326 au 
 Jupiter MOID = 2.561 au 
 T_jup = 3.483 
[ show covariance matrix ]

Ephemeris | Orbit Diagram | Orbital Elements | Mission Design | Physical Parameters | Discovery Circumstances | Close-Approach Data ]

Physical Parameter Table
Parameter Symbol Value Units Sigma Reference Notes
absolute magnitude H 14.58   n/a E2021B10  
diameter diameter 3.339 km 0.784 urn:nasa:pds:neowise_diameters_albedos::2.0[mainbelt] (http://adsabs.harvard.edu/abs/2011ApJ...741...68M)  
geometric albedo albedo 0.251   0.133 urn:nasa:pds:neowise_diameters_albedos::2.0[mainbelt] (http://adsabs.harvard.edu/abs/2011ApJ...741...68M)  

22130 (2000 UT3)          Discovered 2000-Oct-31 by LINEAR at Socorro
Reference: 20010208/Numbers.arcLast Updated: 2004-04-19

[ show close-approach data ]
Alternate Designations
 2000 UT3 = 1998 HP132 = 1999 NM46 
Ephemeris | Orbit Diagram | Orbital Elements | Mission Design | Physical Parameters | Discovery Circumstances | Close-Approach Data ]
ABOUT SSD CREDITS/AWARDS PRIVACY/COPYRIGHT GLOSSARY LINKS
FirstGov 2021-Apr-23 03:25 UT
(server date/time)  
NASA Home Page
Site Manager:   Ryan S. Park
Webmaster  Alan B. Chamberlin